Location: *
(43.4667°N, 11.6833°E)
Time: 09:37:35
(UTC+00:00)

Cosmos 1862 - Pass Details

Date: 19 July 2019
Orbit: 538 x 558 km, 82.5° (Epoch: 21 August)

Event Time Altitude Azimuth Distance (km) Brightness Sun altitude
Exits shadow 22:28:09 43° 281° (W) 774 4.1 -24.7°
Maximum altitude 22:28:10 43° 282° (WNW) 774 4.1 -24.7°
Drops below altitude 10° 22:32:01 10° 355° (N) 1,826 7.0 -24.8°
Sets 22:34:16 0° 2° (N) 2,720 8.1 -24.9°
